This is the latest recevied weather packets stored in our database for station/object KC5DAQ-27. If no packets are shown the sender has not sent any weather packets the latest 1 day(s).
| Time | Temp. | Humidity | Pressure | Rain* | Wind** | Luminosity | Snow |
|---|---|---|---|---|---|---|---|
| 1778071623 | 23.89° C | 96% | 1000.9 hPa | 0 mm | - | 74 W/m² | - |
| 1778071562 | 23.89° C | 96% | 1000.9 hPa | 0 mm | - | 70 W/m² | - |
| 1778071383 | 23.89° C | 96% | 1000.9 hPa | 0 mm | - | 72 W/m² | - |
| 1778071322 | 23.89° C | 96% | 1000.9 hPa | 0 mm | - | 70 W/m² | - |
| 1778071143 | 23.89° C | 96% | 1000.9 hPa | 0 mm | - | 69 W/m² | - |
| 1778071024 | 23.89° C | 96% | 1000.9 hPa | 0 mm | - | 65 W/m² | - |
| 1778070723 | 23.89° C | 96% | 1000.9 hPa | 0 mm | - | 58 W/m² | - |
| 1778070422 | 23.89° C | 96% | 1000.9 hPa | 0 mm | - | 55 W/m² | - |
| 1778070363 | 23.89° C | 96% | 1000.9 hPa | 0 mm | - | 53 W/m² | - |
| 1778070062 | 23.89° C | 96% | 1000.8 hPa | 0 mm | - | 41 W/m² | - |
| 1778069824 | 23.89° C | 96% | 1000.8 hPa | 0 mm | - | 33 W/m² | - |
| 1778069763 | 23.89° C | 96% | 1000.7 hPa | 0 mm | - | 32 W/m² | - |
| 1778069643 | 23.89° C | 96% | 1000.7 hPa | 0 mm | - | 28 W/m² | - |
| 1778069584 | 23.89° C | 96% | 1000.8 hPa | 0 mm | - | 25 W/m² | - |
| 1778069223 | 23.89° C | 96% | 1000.6 hPa | 0 mm | - | 19 W/m² | - |
| 1778069104 | 23.89° C | 96% | 1000.6 hPa | 0 mm | - | 19 W/m² | - |
| 1778068983 | 23.89° C | 96% | 1000.7 hPa | 0 mm | - | 18 W/m² | - |
| 1778068683 | 23.89° C | 96% | 1000.7 hPa | 0 mm | - | 11 W/m² | - |
| 1778068139 | 23.89° C | 96% | 1000.6 hPa | 0 mm | - | 9 W/m² | - |
| 1778068020 | 23.89° C | 96% | 1000.5 hPa | 0 mm | - | 7 W/m² | - |
| 1778067780 | 23.89° C | 96% | 1000.4 hPa | 0 mm | - | 0 W/m² | - |
| 1778067659 | 23.89° C | 96% | 1000.4 hPa | 0 mm | - | 0 W/m² | - |
| 1778067600 | 23.89° C | 96% | 1000.3 hPa | 0 mm | - | 0 W/m² | - |
| 1778067479 | 23.89° C | 96% | 1000.3 hPa | 0 mm | - | 0 W/m² | - |
| 1778067419 | 23.89° C | 96% | 1000.3 hPa | 0 mm | - | 0 W/m² | - |
* Rain latest hour (hover to see other rain measurements)
** Current wind speed in m/s (hover to see current wind gust speed)